Brenham, TX

8:53 AM CST on February 20, 2019 (GMT -0600)
Brenham

Weather History for K11R - July, 2016

Change the Weather History Date:

Wednesday, July 6, 2016

  Actual Average (KCLL) Record (KCLL)
Temperature  
Mean Temperature 89 °F -  
Max Temperature 97 °F 92 °F 104 °F (1901)
Min Temperature 81 °F 71 °F 62 °F (1901)
Cooling Degree Days 24    
Growing Degree Days 39 (Base 50)    
Moisture  
Dew Point 75 °F    
Average Humidity 67    
Maximum Humidity 91    
Minimum Humidity 41    
Precipitation  
Precipitation 0.00 in - - ()
Sea Level Pressure  
Sea Level Pressure 29.99 in    
Wind  
Wind Speed 11 mph (South)    
Max Wind Speed 18 mph    
Max Gust Speed 29 mph    
Visibility 10 miles    
Events      
Averages and records for this station are not official NWS values.
T = Trace of Precipitation, MM = Missing Value Source: NWS Daily Summary

Daily Weather History Graph

Daily Weather History Graph

Search for Another Location

Airport or City:

Astronomy

Jul. 06, 2016 Rise Set
Actual Time 6:29 AM CDT 8:30 PM CDT
Civil Twilight 6:02 AM CDT 8:57 PM CDT
Nautical Twilight 5:29 AM CDT 9:31 PM CDT
Astronomical Twilight 4:54 AM CDT 10:06 PM CDT
Moon 8:46 AM CDT (7/6) 10:18 PM CDT (7/6)
Length of Visible Light 14h 55m
Length of Day
14h 00m
Waxing Crescent, 6% of the Moon is Illuminated
Jul 6
Waxing Crescent
Jul 11
First Quarter
Jul 19
Full
Jul 26
Last Quarter
Aug 2
New

Hourly Weather History & Observations

Time (CDT) Temp. Heat Index Dew Point Humidity Pressure Visibility Wind Dir Wind Speed Gust Speed Precip Events Conditions
12:15 AM 82.4 °F 90.3 °F 76.5 °F 82% 30.00 in 10.0 mi South 6.9 mph - N/A   Clear
12:35 AM 81.5 °F 89.0 °F 76.8 °F 86% 30.00 in 10.0 mi SSE 10.4 mph - N/A   Scattered Clouds
12:55 AM 81.5 °F 89.0 °F 77.0 °F 86% 30.00 in 10.0 mi SSE 8.1 mph - N/A   Scattered Clouds
1:15 AM 81.3 °F 89.0 °F 77.5 °F 88% 30.00 in 10.0 mi SSE 8.1 mph - N/A   Mostly Cloudy
1:35 AM 81.5 °F 90.0 °F 78.3 °F 90% 30.00 in 10.0 mi South 8.1 mph - N/A   Overcast
1:55 AM 81.7 °F 90.8 °F 78.8 °F 91% 30.00 in 10.0 mi South 10.4 mph - N/A   Overcast
2:15 AM 81.5 °F 90.2 °F 78.8 °F 91% 29.99 in 10.0 mi South 11.5 mph - N/A   Overcast
2:35 AM 81.7 °F 90.8 °F 78.8 °F 91% 29.98 in 10.0 mi South 10.4 mph 16.1 mph N/A   Overcast
2:55 AM 81.9 °F 91.3 °F 79.0 °F 91% 29.99 in 10.0 mi South 12.7 mph 16.1 mph N/A   Overcast
3:15 AM 82.0 °F 91.6 °F 79.0 °F 90% 29.99 in 10.0 mi South 12.7 mph 17.3 mph N/A   Overcast
3:35 AM 82.0 °F 91.6 °F 79.0 °F 90% 29.99 in 10.0 mi South 12.7 mph 17.3 mph N/A   Overcast
3:55 AM 82.0 °F 91.6 °F 79.0 °F 90% 30.00 in 10.0 mi South 11.5 mph 18.4 mph N/A   Overcast
4:15 AM 81.9 °F 91.1 °F 78.8 °F 90% 30.00 in 10.0 mi South 8.1 mph - N/A   Overcast
4:35 AM 82.0 °F 91.6 °F 78.8 °F 90% 29.99 in 10.0 mi South 11.5 mph 17.3 mph N/A   Overcast
4:55 AM 82.4 °F 92.1 °F 78.6 °F 88% 30.00 in 10.0 mi South 10.4 mph - N/A   Overcast
5:15 AM 82.4 °F 92.1 °F 78.4 °F 88% 29.99 in 10.0 mi South 9.2 mph - N/A   Overcast
5:35 AM 82.6 °F 92.3 °F 78.3 °F 87% 30.00 in 10.0 mi SSW 10.4 mph - N/A   Overcast
5:55 AM 82.4 °F 90.9 °F 77.2 °F 84% 30.00 in 10.0 mi SSW 10.4 mph - N/A   Overcast
6:15 AM 82.4 °F 91.2 °F 77.4 °F 85% 30.01 in 10.0 mi South 9.2 mph 16.1 mph N/A   Overcast
6:35 AM 81.9 °F 90.0 °F 77.4 °F 86% 30.01 in 10.0 mi South 8.1 mph - N/A   Mostly Cloudy
6:55 AM 81.7 °F 89.7 °F 77.4 °F 87% 30.02 in 10.0 mi South 9.2 mph - N/A   Mostly Cloudy
7:15 AM 82.4 °F 91.2 °F 77.4 °F 85% 30.02 in 10.0 mi South 9.2 mph - N/A   Mostly Cloudy
7:35 AM 82.8 °F 91.9 °F 77.4 °F 84% 30.02 in 10.0 mi South 8.1 mph - N/A   Mostly Cloudy
7:55 AM 83.5 °F 92.9 °F 77.0 °F 81% 30.03 in 10.0 mi South 9.2 mph - N/A   Mostly Cloudy
8:15 AM 84.2 °F 94.1 °F 77.0 °F 79% 30.03 in 7.0 mi South 11.5 mph - N/A   Overcast
8:35 AM 85.3 °F 95.8 °F 76.8 °F 76% 30.04 in 10.0 mi South 10.4 mph - N/A   Overcast
8:55 AM 86.7 °F 97.8 °F 76.6 °F 72% 30.04 in 10.0 mi South 13.8 mph 19.6 mph N/A   Mostly Cloudy
9:15 AM 86.9 °F 97.3 °F 75.9 °F 70% 30.05 in 10.0 mi SSW 13.8 mph - N/A   Mostly Cloudy
9:35 AM 87.3 °F 97.2 °F 75.6 °F 68% 30.04 in 10.0 mi South 16.1 mph - N/A   Mostly Cloudy
9:55 AM 88.5 °F 98.8 °F 75.4 °F 65% 30.04 in 10.0 mi South 16.1 mph 21.9 mph N/A   Mostly Cloudy
10:15 AM 89.6 °F 99.3 °F 74.7 °F 61% 30.04 in 10.0 mi South 17.3 mph 24.2 mph N/A   Scattered Clouds
10:35 AM 90.3 °F 99.9 °F 74.3 °F 59% 30.04 in 10.0 mi South 13.8 mph 24.2 mph N/A   Mostly Cloudy
10:55 AM 90.9 °F 99.4 °F 73.2 °F 56% 30.04 in 10.0 mi South 17.3 mph 21.9 mph N/A   Mostly Cloudy
11:15 AM 90.9 °F 98.9 °F 72.9 °F 55% 30.04 in 10.0 mi South 16.1 mph - N/A   Mostly Cloudy
11:35 AM 91.9 °F 101.3 °F 73.9 °F 55% 30.04 in 10.0 mi South 11.5 mph 21.9 mph N/A   Mostly Cloudy
11:55 AM 92.7 °F 101.1 °F 72.9 °F 52% 30.04 in 10.0 mi South 13.8 mph 19.6 mph N/A   Scattered Clouds
12:15 PM 93.6 °F 102.5 °F 73.0 °F 51% 30.03 in 10.0 mi South 11.5 mph 17.3 mph N/A   Scattered Clouds
12:35 PM 93.7 °F 102.9 °F 73.2 °F 51% 30.03 in 10.0 mi South 16.1 mph 23.0 mph N/A   Scattered Clouds
12:55 PM 94.6 °F 103.7 °F 73.0 °F 49% 30.02 in 10.0 mi South 13.8 mph 21.9 mph N/A   Scattered Clouds
1:15 PM 94.8 °F 104.1 °F 72.9 °F 49% 30.02 in 10.0 mi South 15.0 mph 20.7 mph N/A   Scattered Clouds
1:35 PM 94.6 °F 103.7 °F 72.5 °F 49% 30.01 in 10.0 mi South 15.0 mph 20.7 mph N/A   Scattered Clouds
1:55 PM 95.5 °F 102.4 °F 70.7 °F 44% 30.00 in 10.0 mi South 17.3 mph 24.2 mph N/A   Scattered Clouds
2:15 PM 96.1 °F 101.6 °F 68.9 °F 41% 29.99 in 10.0 mi SSW 18.4 mph 25.3 mph N/A   Clear
2:35 PM 97.2 °F 103.8 °F 69.6 °F 41% 29.99 in 10.0 mi South 13.8 mph 21.9 mph N/A   Clear
2:55 PM 97.2 °F 105.2 °F 71.4 °F 43% 29.98 in 10.0 mi South 13.8 mph 23.0 mph N/A   Scattered Clouds
3:15 PM 95.7 °F 104.8 °F 72.5 °F 47% 29.98 in - SSE 15.0 mph 28.8 mph N/A   Mostly Cloudy
3:35 PM 96.3 °F 103.9 °F 71.4 °F 44% 29.97 in 10.0 mi SSE 13.8 mph 18.4 mph N/A   Mostly Cloudy
3:55 PM 94.8 °F 103.4 °F 72.1 °F 48% 29.97 in 10.0 mi South 17.3 mph 21.9 mph N/A   Scattered Clouds
4:15 PM 95.5 °F 103.7 °F 72.0 °F 46% 29.97 in 10.0 mi South 15.0 mph 23.0 mph N/A   Scattered Clouds
4:35 PM 95.0 °F 102.5 °F 71.1 °F 46% 29.97 in 10.0 mi SSE 15.0 mph 21.9 mph N/A   Scattered Clouds
4:55 PM 95.4 °F 102.7 °F 70.9 °F 45% 29.97 in 10.0 mi South 12.7 mph 23.0 mph N/A   Scattered Clouds
5:15 PM 94.8 °F 101.5 °F 70.5 °F 45% 29.96 in 10.0 mi SSE 13.8 mph 21.9 mph N/A   Scattered Clouds
5:35 PM 94.3 °F 101.0 °F 70.7 °F 46% 29.95 in 10.0 mi SSE 13.8 mph 20.7 mph N/A   Scattered Clouds
5:55 PM 93.6 °F 100.7 °F 70.9 °F 48% 29.95 in 10.0 mi SSE 11.5 mph - N/A   Clear
6:15 PM 93.4 °F 100.3 °F 71.1 °F 48% 29.95 in 10.0 mi South 16.1 mph 24.2 mph N/A   Clear
6:35 PM 92.7 °F 98.3 °F 70.0 °F 47% 29.95 in 10.0 mi SSE 11.5 mph 21.9 mph N/A   Clear
6:55 PM 92.3 °F 98.6 °F 70.7 °F 49% 29.94 in 10.0 mi South 10.4 mph 24.2 mph N/A   Clear
7:15 PM 91.4 °F 97.8 °F 70.7 °F 51% 29.94 in 10.0 mi South 11.5 mph 18.4 mph N/A   Clear
7:35 PM 90.3 °F 96.2 °F 70.7 °F 52% 29.95 in 10.0 mi SSE 12.7 mph 17.3 mph N/A   Clear
7:55 PM 89.4 °F 95.8 °F 71.2 °F 55% 29.95 in 10.0 mi SSE 10.4 mph - N/A   Clear
8:15 PM 88.2 °F 94.1 °F 71.2 °F 57% 29.95 in 10.0 mi SSE 8.1 mph - N/A   Clear
8:35 PM 87.1 °F 93.2 °F 71.6 °F 60% 29.95 in 10.0 mi SSE 9.2 mph - N/A   Clear
8:55 PM 86.9 °F 93.7 °F 72.3 °F 62% 29.95 in 10.0 mi SSE 9.2 mph - N/A   Clear
9:15 PM 85.5 °F 92.2 °F 73.0 °F 66% 29.95 in 10.0 mi SSE 10.4 mph 17.3 mph N/A   Clear
9:35 PM 85.1 °F 92.6 °F 73.8 °F 69% 29.95 in 10.0 mi SSE 9.2 mph - N/A   Clear
9:55 PM 84.6 °F 91.7 °F 73.9 °F 70% 29.96 in 10.0 mi SSE 9.2 mph 17.3 mph N/A   Clear
10:15 PM 84.2 °F 91.6 °F 74.1 °F 72% 29.97 in 10.0 mi SSE 8.1 mph - N/A   Clear
10:35 PM 83.5 °F 90.6 °F 74.5 °F 74% 29.98 in 10.0 mi SSE 8.1 mph - N/A   Clear
10:55 PM 83.3 °F 90.8 °F 74.8 °F 76% 29.98 in 10.0 mi South 8.1 mph - N/A   Clear
11:15 PM 82.8 °F 90.1 °F 75.2 °F 78% 29.99 in 10.0 mi SSE 8.1 mph - N/A   Clear
11:35 PM 81.9 °F 88.5 °F 75.2 °F 80% 29.99 in 10.0 mi South 8.1 mph - N/A   Clear
11:55 PM 81.7 °F 88.5 °F 75.6 °F 82% 30.00 in 10.0 mi South 8.1 mph - N/A   Clear